DL5ARK Weather Reports


Display with metric or nautical units.
time (UTC)temp
F
wind
direction
speed
MPH
gust
MPH
rain 1hr
in
rain 24hr
in
rain mn
in
humidity
%
barometer
mb
20260901115106 69 337 3.0 3.0 0.00 0.00 0.00 61 1008.2
20260901114806 68 337 6.0 6.0 0.00 0.00 0.00 58 1008.5
20260901114205 70 225 5.0 5.0 0.00 0.00 0.00 58 1008.2
20260901113906 71 202 8.0 8.0 0.00 0.00 0.00 62 1008.2
20260901113606 69 225 3.0 3.0 0.00 0.00 0.00 59 1008.5
20260901113305 71 202 7.0 7.0 0.00 0.00 0.00 61 1008.5
20260901113006 72 225 5.0 5.0 0.00 0.00 0.00 62 1008.5
20260901112406 71 337 3.0 3.0 0.00 0.00 0.00 61 1008.5
20260901112106 70 337 5.0 5.0 0.00 0.00 0.00 62 1008.5
20260901111806 69 225 4.0 4.0 0.00 0.00 0.00 60 1008.5
20260901111506 69 270 4.0 4.0 0.00 0.00 0.00 62 1008.5
20260901111206 69 292 6.0 6.0 0.00 0.00 0.00 63 1008.5
20260901110909 68 337 5.0 5.0 0.00 0.00 0.00 63 1008.5
20260901110606 68 292 7.0 7.0 0.00 0.00 0.00 63 1008.7
20260901110306 69 270 3.0 3.0 0.00 0.00 0.00 64 1008.5
20260901110005 68 247 3.0 3.0 0.00 0.00 0.00 64 1008.5
20260901105706 67 270 5.0 5.0 0.00 0.00 0.00 63 1008.5
20260901105406 67 315 4.0 4.0 0.00 0.00 0.00 63 1008.5
20260901105105 68 337 4.0 4.0 0.00 0.00 0.00 63 1008.7
20260901104805 69 315 3.0 3.0 0.00 0.00 0.00 62 1008.5
20260901104505 70 315 4.0 4.0 0.00 0.00 0.00 63 1008.5
20260901104207 70 247 3.0 3.0 0.00 0.00 0.00 65 1008.5
20260901103908 69 315 4.0 4.0 0.00 0.00 0.00 66 1008.7
20260901103605 70 225 9.0 9.0 0.00 0.00 0.00 65 1008.7
20260901103306 70 337 7.0 7.0 0.00 0.00 0.00 66 1008.5
20260901103005 69 225 3.0 3.0 0.00 0.00 0.00 69 1008.5
20260901102706 68 292 6.0 6.0 0.00 0.00 0.00 68 1008.7
20260901102406 68 225 5.0 5.0 0.00 0.00 0.00 68 1008.7
20260901102108 69 247 4.0 4.0 0.00 0.00 0.00 70 1008.7
20260901101806 68 270 7.0 7.0 0.00 0.00 0.00 69 1008.7
20260901101505 69 247 2.0 2.0 0.00 0.00 0.00 74 1008.7
20260901101205 67 270 4.0 4.0 0.00 0.00 0.00 75 1008.7
20260901100905 67 202 5.0 5.0 0.00 0.00 0.00 73 1008.7
20260901100305 66 270 4.0 4.0 0.00 0.00 0.00 75 1008.7
20260901100007 65 270 4.0 4.0 0.00 0.00 0.00 73 1008.7
20260901095707 65 270 4.0 4.0 0.00 0.00 0.00 73 1008.7
20260901095406 65 270 3.0 3.0 0.00 0.00 0.00 73 1008.7
20260901095107 65 270 6.0 6.0 0.00 0.00 0.00 73 1008.7
20260901094506 66 270 1.0 1.0 0.00 0.00 0.00 76 1008.7
20260901094205 65 247 4.0 4.0 0.00 0.00 0.00 75 1008.7
20260901093906 65 337 5.0 5.0 0.00 0.00 0.00 76 1008.7
20260901093606 65 337 4.0 4.0 0.00 0.00 0.00 76 1008.7
20260901093308 64 202 4.0 4.0 0.00 0.00 0.00 77 1008.7
20260901093006 64 247 6.0 6.0 0.00 0.00 0.00 78 1008.7
20260901092706 64 270 6.0 6.0 0.00 0.00 0.00 77 1008.7
20260901092405 64 225 4.0 4.0 0.00 0.00 0.00 78 1008.7
20260901092106 64 225 3.0 3.0 0.00 0.00 0.00 78 1008.7
20260901091506 63 225 4.0 4.0 0.00 0.00 0.00 78 1008.7
20260901091206 64 247 2.0 2.0 0.00 0.00 0.00 78 1008.7
20260901090905 63 270 6.0 6.0 0.00 0.00 0.00 77 1008.7
20260901090606 63 270 4.0 4.0 0.00 0.00 0.00 78 1008.7
20260901090305 63 247 6.0 6.0 0.00 0.00 0.00 77 1008.7
20260901090006 64 225 3.0 3.0 0.00 0.00 0.00 79 1008.7
20260901085706 64 270 4.0 4.0 0.00 0.00 0.00 79 1008.7
20260901085406 64 247 3.0 3.0 0.00 0.00 0.00 79 1008.7
20260901085105 63 292 3.0 3.0 0.00 0.00 0.00 80 1008.7
20260901084506 63 270 5.0 5.0 0.00 0.00 0.00 80 1008.7
20260901084206 63 225 3.0 3.0 0.00 0.00 0.00 81 1008.7
20260901083905 63 270 5.0 5.0 0.00 0.00 0.00 80 1008.7
20260901083605 63 337 5.0 5.0 0.00 0.00 0.00 81 1008.7
20260901083305 63 270 2.0 2.0 0.00 0.00 0.00 82 1008.7
20260901082705 62 315 5.0 5.0 0.00 0.00 0.00 82 1008.7
20260901082406 62 270 1.0 1.0 0.00 0.00 0.00 82 1008.7
20260901082106 62 315 5.0 5.0 0.00 0.00 0.00 82 1008.7
20260901081805 61 315 2.0 2.0 0.00 0.00 0.00 83 1008.7
20260901081205 61 315 2.0 2.0 0.00 0.00 0.00 84 1008.7
20260901080906 61 292 1.0 1.0 0.00 0.00 0.00 84 1008.7
20260901080606 62 270 2.0 2.0 0.00 0.00 0.00 84 1008.7
20260901080306 61 270 4.0 4.0 0.00 0.00 0.00 84 1008.7
20260901080006 62 337 2.0 2.0 0.00 0.00 0.00 85 1008.7
20260901075706 61 315 3.0 3.0 0.00 0.00 0.00 85 1008.7
20260901075405 61 292 5.0 5.0 0.00 0.00 0.00 85 1008.5
20260901075106 61 225 2.0 2.0 0.00 0.00 0.00 85 1008.7
20260901074805 60 225 2.0 2.0 0.00 0.00 0.00 85 1008.5
20260901074508 60 247 4.0 4.0 0.00 0.00 0.00 85 1008.5
20260901074206 60 270 4.0 4.0 0.00 0.00 0.00 86 1008.5
20260901073905 60 247 2.0 2.0 0.00 0.00 0.00 86 1008.5
20260901073605 60 337 2.0 2.0 0.00 0.00 0.00 86 1008.2
20260901073306 60 202 2.0 2.0 0.00 0.00 0.00 87 1008.2
20260901073008 60 225 3.0 3.0 0.00 0.00 0.00 87 1008.2
20260901072706 60 247 2.0 2.0 0.00 0.00 0.00 87 1008.2
20260901072407 60 337 2.0 2.0 0.00 0.00 0.00 87 1008.2
20260901072105 60 225 2.0 2.0 0.00 0.00 0.00 87 1008.2
20260901071805 59 225 2.0 2.0 0.00 0.00 0.00 87 1008.2
20260901071205 59 270 1.0 2.0 0.00 0.00 0.00 88 1008.2
20260901070905 59 315 2.0 2.0 0.00 0.00 0.00 87 1008.2
20260901070605 59 270 1.0 2.0 0.00 0.00 0.00 88 1008.2
20260901070306 59 337 1.0 2.0 0.00 0.00 0.00 88 1008.2
20260901070006 59 225 1.0 1.0 0.00 0.00 0.00 88 1008.2
20260901065405 58 270 0.0 0.0 0.00 0.00 0.00 87 1008.2
20260901065106 58 225 1.0 1.0 0.00 0.00 0.00 87 1008.2
20260901064805 58 270 3.0 3.0 0.00 0.00 0.00 87 1008.2
20260901064506 58 225 1.0 1.0 0.00 0.00 0.00 87 1008.2
20260901063906 58 225 2.0 2.0 0.00 0.00 0.00 88 1008.2
20260901063605 57 270 2.0 2.0 0.00 0.00 0.00 87 1008.2
20260901063306 57 270 2.0 2.0 0.00 0.00 0.00 88 1008.2
20260901063006 57 225 1.0 1.0 0.00 0.00 0.00 87 1008.2
20260901062406 57 315 0.0 0.0 0.00 0.00 0.00 87 1008.2
20260901062106 57 202 2.0 2.0 0.00 0.00 0.00 87 1008.2
20260901061805 57 270 1.0 1.0 0.00 0.00 0.00 87 1008.2
20260901061506 57 270 2.0 2.0 0.00 0.00 0.00 87 1008.2
20260901061205 57 270 1.0 1.0 0.00 0.00 0.00 87 1008.2
20260901060909 57 270 2.0 2.0 0.00 0.00 0.00 87 1008.2
20260901060605 57 202 0.0 0.0 0.00 0.00 0.00 87 1008.2
20260901060306 57 337 2.0 2.0 0.00 0.00 0.00 87 1008.2
20260901060006 57 225 1.0 1.0 0.00 0.00 0.00 87 1008.2
20260901055705 57 180 1.0 1.0 0.00 0.00 0.00 87 1008.2
20260901055406 57 225 1.0 1.0 0.00 0.00 0.00 86 1008.2
20260901054806 56 225 1.0 1.0 0.00 0.00 0.00 86 1008.2
20260901054505 57 270 2.0 2.0 0.00 0.00 0.00 87 1008.2
20260901054206 56 337 0.0 0.0 0.00 0.00 0.00 86 1008.2
20260901053905 56 225 2.0 2.0 0.00 0.00 0.00 86 1008.2
20260901053609 56 337 1.0 1.0 0.00 0.00 0.00 86 1008.0
20260901053306 56 202 1.0 1.0 0.00 0.00 0.00 87 1008.2
20260901053005 56 337 1.0 1.0 0.00 0.00 0.00 87 1008.0
20260901052705 56 202 0.0 0.0 0.00 0.00 0.00 86 1008.0
20260901052406 56 337 1.0 1.0 0.00 0.00 0.00 87 1008.0
20260901052106 56 180 0.0 0.0 0.00 0.00 0.00 87 1008.0
20260901051506 56 202 0.0 0.0 0.00 0.00 0.00 86 1008.0
20260901051206 56 180 0.0 0.0 0.00 0.00 0.00 86 1007.7
20260901050905 56 180 0.0 0.0 0.00 0.00 0.00 86 1008.0
20260901050606 56 180 0.0 0.0 0.00 0.00 0.00 86 1007.7
20260901050305 56 180 0.0 0.0 0.00 0.00 0.00 86 1007.7
20260901045706 56 180 0.0 0.0 0.00 0.00 0.00 86 1007.7
20260901045406 56 337 0.0 0.0 0.00 0.00 0.00 86 1007.7
20260901045106 56 112 0.0 0.0 0.00 0.00 0.00 86 1007.7
20260901044806 56 112 0.0 0.0 0.00 0.00 0.00 86 1007.7
20260901044507 56 112 0.0 0.0 0.00 0.00 0.00 86 1007.7
20260901044208 56 337 0.0 0.0 0.00 0.00 0.00 86 1007.7
20260901043906 56 90 0.0 0.0 0.00 0.00 0.00 86 1007.7
20260901043605 56 90 1.0 1.0 0.00 0.00 0.00 86 1007.7
20260901043306 56 112 0.0 0.0 0.00 0.00 0.00 86 1007.7
20260901043005 56 90 0.0 0.0 0.00 0.00 0.00 86 1007.7
20260901042708 56 90 0.0 0.0 0.00 0.00 0.00 86 1007.7
20260901042406 56 45 0.0 0.0 0.00 0.00 0.00 86 1007.7
20260901042106 56 22 0.0 0.0 0.00 0.00 0.00 85 1007.5
20260901041806 56 22 0.0 0.0 0.00 0.00 0.00 86 1007.5
20260901041505 56 22 0.0 0.0 0.00 0.00 0.00 86 1007.5
20260901041206 56 22 0.0 0.0 0.00 0.00 0.00 86 1007.5
20260901040908 56 315 0.0 0.0 0.00 0.00 0.00 86 1007.7
20260901040605 56 225 0.0 0.0 0.00 0.00 0.00 86 1007.5
20260901040305 56 180 0.0 0.0 0.00 0.00 0.00 86 1007.2
20260901040006 56 225 0.0 0.0 0.00 0.00 0.00 86 1007.5
20260901035706 56 337 0.0 0.0 0.00 0.00 0.00 86 1007.2
20260901035106 56 337 0.0 0.0 0.00 0.00 0.00 85 1007.2
20260901034806 56 270 0.0 0.0 0.00 0.00 0.00 85 1007.2
20260901034506 56 337 0.0 0.0 0.00 0.00 0.00 85 1007.2
20260901034206 56 270 0.0 0.0 0.00 0.00 0.00 85 1007.2
20260901033905 56 270 0.0 0.0 0.00 0.00 0.00 85 1007.2
20260901033606 56 270 0.0 0.0 0.00 0.00 0.00 85 1007.2
20260901033305 56 135 0.0 0.0 0.00 0.00 0.00 85 1007.2
20260901033006 56 225 0.0 0.0 0.00 0.00 0.00 85 1007.2
20260901032707 56 225 0.0 0.0 0.00 0.00 0.00 85 1007.2
20260901032106 56 180 0.0 0.0 0.00 0.00 0.00 85 1007.2
20260901031805 56 202 0.0 0.0 0.00 0.00 0.00 85 1007.0
20260901031506 56 247 0.0 0.0 0.00 0.00 0.00 85 1007.0
20260901031206 56 270 0.0 0.0 0.00 0.00 0.00 85 1007.2
20260901030908 56 270 0.0 0.0 0.00 0.00 0.00 85 1007.0
20260901030605 56 337 0.0 0.0 0.00 0.00 0.00 85 1007.0
20260901030305 56 315 0.0 0.0 0.00 0.00 0.00 85 1007.2
20260901030005 56 315 0.0 0.0 0.00 0.00 0.00 85 1007.0
20260901025706 56 270 0.0 0.0 0.00 0.00 0.00 85 1007.0
20260901025407 56 337 1.0 1.0 0.00 0.00 0.00 85 1007.0
20260901024806 56 270 0.0 0.0 0.00 0.00 0.00 85 1006.7
20260901024505 56 292 2.0 2.0 0.00 0.00 0.00 85 1007.0
20260901024206 56 270 1.0 2.0 0.00 0.00 0.00 85 1007.0
20260901023906 56 315 2.0 2.0 0.00 0.00 0.00 85 1006.7
20260901023606 56 292 1.0 1.0 0.00 0.00 0.00 85 1007.0
20260901023006 56 270 3.0 3.0 0.00 0.00 0.00 85 1007.0
20260901022706 56 270 0.0 0.0 0.00 0.00 0.00 85 1006.7
20260901022406 56 337 0.0 0.0 0.00 0.00 0.00 85 1006.7
20260901022106 56 247 1.0 1.0 0.00 0.00 0.00 85 1006.7
20260901021806 56 337 2.0 2.0 0.00 0.00 0.00 85 1007.0
20260901021506 56 270 0.0 0.0 0.00 0.00 0.00 86 1006.7
20260901021206 56 337 2.0 2.0 0.00 0.00 0.00 86 1006.7
20260901020906 56 225 2.0 2.0 0.00 0.00 0.00 86 1006.7
20260901020606 56 247 1.0 1.0 0.00 0.00 0.00 86 1006.7
20260901020005 56 225 1.0 1.0 0.00 0.00 0.00 85 1006.7
20260901015706 56 337 0.0 0.0 0.00 0.00 0.00 85 1006.7
20260901015405 56 202 0.0 0.0 0.00 0.00 0.00 85 1006.7
20260901015105 56 225 2.0 2.0 0.00 0.00 0.00 85 1006.7
20260901014808 56 180 2.0 2.0 0.00 0.00 0.00 85 1006.5
20260901014505 56 337 1.0 1.0 0.00 0.00 0.00 85 1006.5
20260901014206 56 270 0.0 0.0 0.00 0.00 0.00 85 1006.5
20260901013906 56 270 0.0 0.0 0.00 0.00 0.00 85 1006.5
20260901013606 56 337 0.0 0.0 0.00 0.00 0.00 85 1006.5
20260901013307 56 225 0.0 0.0 0.00 0.00 0.00 85 1006.5
20260901013006 56 225 2.0 2.0 0.00 0.00 0.00 85 1006.5
20260901012706 56 225 2.0 2.0 0.00 0.00 0.00 85 1006.5
20260901012405 56 202 0.0 0.0 0.00 0.00 0.00 85 1006.5
20260901012106 56 225 1.0 1.0 0.00 0.00 0.00 85 1006.5
20260901011805 56 337 0.0 0.0 0.00 0.00 0.00 85 1006.5
20260901011205 56 247 0.0 0.0 0.00 0.00 0.00 85 1006.2
20260901010906 56 225 1.0 1.0 0.00 0.00 0.00 84 1006.2
20260901010606 56 225 0.0 0.0 0.00 0.00 0.00 85 1006.2
20260901010306 56 225 0.0 0.0 0.00 0.00 0.00 85 1006.2
20260901010005 56 225 1.0 1.0 0.00 0.00 0.00 85 1006.2
20260901005406 56 180 0.0 0.0 0.00 0.00 0.00 85 1006.2
20260901005106 56 90 0.0 0.0 0.00 0.00 0.00 84 1006.2
20260901004806 56 337 0.0 0.0 0.00 0.00 0.00 85 1006.2
20260901004506 56 90 0.0 0.0 0.00 0.00 0.00 84 1006.2
20260901004206 56 90 0.0 0.0 0.00 0.00 0.00 84 1006.2
20260901003908 56 90 0.0 0.0 0.00 0.00 0.00 84 1006.2
20260901003606 56 90 0.0 0.0 0.00 0.00 0.00 84 1006.2
20260901003306 56 90 0.0 0.0 0.00 0.00 0.00 84 1006.2
20260901003006 56 90 0.0 0.0 0.00 0.00 0.00 84 1006.0
20260901002705 56 202 0.0 0.0 0.00 0.00 0.00 83 1006.2
20260901002406 56 337 0.0 0.0 0.00 0.00 0.00 83 1006.2
20260901002105 55 202 0.0 0.0 0.00 0.00 0.00 83 1006.0
20260901001806 55 337 0.0 0.0 0.00 0.00 0.00 83 1006.2
20260901001506 55 202 0.0 0.0 0.00 0.00 0.00 82 1006.2
20260901001205 55 202 0.0 0.0 0.00 0.00 0.00 83 1006.2
20260901000906 55 202 0.0 0.0 0.00 0.00 0.00 83 1006.2
20260901000608 55 202 0.0 0.0 0.00 0.00 0.00 83 1006.0
20260901000305 55 202 0.0 0.0 0.00 0.00 0.00 83 1006.0
20260901000006 55 202 0.0 0.0 0.00 0.00 0.00 83 1006.2
20260831235707 55 202 0.0 0.0 0.00 0.00 0.00 83 1006.2
20260831235406 56 202 0.0 0.0 0.00 0.00 0.00 83 1006.2
20260831235106 56 202 0.0 0.0 0.00 0.00 0.00 84 1006.2
20260831234807 56 337 0.0 0.0 0.00 0.00 0.00 83 1006.0
20260831234508 56 337 0.0 0.0 0.00 0.00 0.00 83 1006.2
20260831234206 56 225 0.0 0.0 0.00 0.00 0.00 83 1006.2
20260831233905 56 337 0.0 0.0 0.00 0.00 0.00 83 1006.2
20260831233606 56 225 0.0 0.0 0.00 0.00 0.00 83 1006.0
20260831233306 56 225 0.0 0.0 0.00 0.00 0.00 83 1006.0
20260831233005 56 225 0.0 0.0 0.00 0.00 0.00 83 1006.2
20260831232708 56 225 0.0 0.0 0.00 0.00 0.00 83 1006.2
20260831232406 56 225 0.0 0.0 0.00 0.00 0.00 83 1006.2
20260831232105 56 225 0.0 0.0 0.00 0.00 0.00 83 1006.2
20260831231805 56 225 0.0 0.0 0.00 0.00 0.00 83 1006.2
20260831231506 56 225 0.0 0.0 0.00 0.00 0.00 83 1006.2
20260831231205 56 225 0.0 0.0 0.00 0.00 0.00 83 1006.2
20260831230606 56 225 0.0 0.0 0.00 0.00 0.00 83 1006.0
20260831230305 56 225 0.0 0.0 0.00 0.00 0.00 83 1006.2
20260831230006 56 225 0.0 0.0 0.00 0.00 0.00 83 1006.0
20260831225706 56 225 0.0 0.0 0.00 0.00 0.00 83 1006.2
20260831225406 56 225 0.0 0.0 0.00 0.00 0.00 83 1006.0
20260831225109 56 225 0.0 0.0 0.00 0.00 0.00 83 1006.0
20260831224806 56 225 0.0 0.0 0.00 0.00 0.00 83 1006.0
20260831224506 56 225 0.0 0.0 0.00 0.00 0.00 83 1006.0
20260831224205 56 337 0.0 0.0 0.00 0.00 0.00 83 1006.2
20260831223906 56 337 0.0 0.0 0.00 0.00 0.00 82 1006.2
20260831223605 56 337 0.0 0.0 0.00 0.00 0.00 82 1006.0
20260831223306 56 0 1.0 1.0 0.00 0.00 0.00 82 1006.0
20260831223006 56 225 0.0 0.0 0.00 0.00 0.00 83 1006.0
20260831222706 56 225 0.0 0.0 0.00 0.00 0.00 82 1006.0
20260831222406 56 225 0.0 0.0 0.00 0.00 0.00 82 1006.2
20260831222105 56 225 0.0 0.0 0.00 0.00 0.00 82 1006.0
20260831221809 56 315 0.0 0.0 0.00 0.00 0.00 82 1006.0
20260831221506 56 315 0.0 0.0 0.00 0.00 0.00 82 1006.0
20260831221206 56 315 0.0 0.0 0.00 0.00 0.00 82 1006.0
20260831220905 56 337 0.0 0.0 0.00 0.00 0.00 82 1005.7
20260831220606 56 315 0.0 0.0 0.00 0.00 0.00 82 1006.0
20260831220306 56 315 0.0 0.0 0.00 0.00 0.00 82 1006.0
20260831220009 57 315 0.0 0.0 0.00 0.00 0.00 82 1006.2
20260831215706 57 315 0.0 0.0 0.00 0.00 0.36 82 1006.0
20260831215406 56 315 0.0 0.0 0.00 0.00 0.36 82 1006.0
20260831215105 57 315 0.0 0.0 0.00 0.00 0.36 81 1006.0
20260831214805 57 315 0.0 0.0 0.00 0.00 0.36 81 1006.0
20260831214506 56 315 0.0 0.0 0.00 0.00 0.36 81 1006.0
20260831214206 56 315 0.0 0.0 0.00 0.00 0.36 81 1006.0
20260831213905 56 315 0.0 0.0 0.00 0.00 0.36 81 1006.0
20260831213606 56 315 0.0 0.0 0.00 0.00 0.36 81 1006.0
20260831213306 56 315 0.0 0.0 0.00 0.00 0.36 81 1006.0
20260831213006 56 315 0.0 0.0 0.00 0.00 0.36 81 1006.0
20260831212406 56 315 0.0 0.0 0.00 0.00 0.36 80 1006.0
20260831212106 56 45 0.0 0.0 0.00 0.00 0.36 80 1006.0
20260831211806 56 45 0.0 0.0 0.00 0.00 0.36 80 1005.7
20260831211505 56 315 0.0 0.0 0.00 0.00 0.36 80 1005.7
20260831211206 56 315 0.0 0.0 0.00 0.00 0.36 80 1005.7
20260831210906 56 315 0.0 0.0 0.00 0.00 0.36 80 1005.7
20260831210606 56 315 0.0 0.0 0.00 0.00 0.36 79 1005.5
20260831210306 56 0 0.0 0.0 0.00 0.00 0.36 79 1005.7
20260831210006 56 67 0.0 0.0 0.00 0.00 0.36 79 1005.5
20260831205406 56 90 1.0 1.0 0.00 0.00 0.36 79 1005.2
20260831205107 56 337 0.0 0.0 0.00 0.00 0.36 79 1005.2
20260831204806 56 202 0.0 0.0 0.00 0.00 0.36 79 1005.2
20260831204206 56 202 0.0 0.0 0.00 0.00 0.36 79 1005.2
20260831203905 56 202 0.0 0.0 0.00 0.00 0.36 78 1005.0
20260831203606 56 202 0.0 0.0 0.00 0.00 0.36 79 1005.2
20260831203306 56 202 0.0 0.0 0.00 0.00 0.36 78 1004.7
20260831203006 56 337 0.0 0.0 0.00 0.00 0.36 78 1005.0
20260831202405 56 202 0.0 0.0 0.00 0.00 0.36 77 1005.2
20260831202105 56 292 0.0 0.0 0.00 0.00 0.36 77 1005.2
20260831201806 56 337 0.0 0.0 0.00 0.00 0.36 77 1005.2
20260831201207 56 337 0.0 0.0 0.00 0.00 0.36 77 1005.0
20260831200906 56 315 0.0 0.0 0.00 0.00 0.36 76 1005.0
20260831200606 57 315 0.0 0.0 0.00 0.00 0.36 76 1005.0
20260831200306 57 0 0.0 0.0 0.00 0.00 0.36 76 1005.0
20260831200007 57 315 1.0 1.0 0.00 0.00 0.36 77 1005.2
20260831195706 57 0 2.0 2.0 0.00 0.00 0.36 77 1005.0
20260831195405 58 337 2.0 2.0 0.00 0.00 0.36 78 1005.0
20260831195107 58 315 1.0 1.0 0.00 0.00 0.36 78 1004.7
20260831194805 58 315 3.0 3.0 0.00 0.00 0.36 78 1004.7
20260831194206 59 292 4.0 4.0 0.00 0.00 0.36 78 1005.0
20260831193906 59 337 4.0 4.0 0.00 0.00 0.36 79 1005.0
20260831193605 58 22 8.0 8.0 0.00 0.00 0.36 80 1004.7
20260831193306 58 0 3.0 3.0 0.00 0.00 0.36 79 1005.0
20260831193009 58 0 3.0 4.0 0.00 0.00 0.36 77 1004.7
20260831192706 58 0 2.0 2.0 0.00 0.00 0.36 77 1004.7
20260831192406 58 337 1.0 1.0 0.00 0.00 0.36 77 1004.5
20260831192106 58 315 0.0 0.0 0.00 0.00 0.36 77 1004.7
20260831191805 58 337 2.0 2.0 0.00 0.00 0.36 77 1004.5
20260831191508 59 0 3.0 3.0 0.00 0.00 0.36 77 1004.7
20260831191206 59 0 2.0 2.0 0.00 0.00 0.36 77 1004.5
20260831190906 59 337 3.0 3.0 0.00 0.00 0.36 77 1004.5
20260831190605 59 0 2.0 2.0 0.00 0.00 0.36 76 1004.5
20260831190306 59 337 0.0 0.0 0.00 0.00 0.36 76 1004.2
20260831185708 59 337 1.0 1.0 0.00 0.00 0.36 76 1004.2
20260831185406 59 270 1.0 1.0 0.00 0.00 0.36 75 1004.2
20260831185106 59 337 0.0 0.0 0.00 0.00 0.36 75 1004.2
20260831184805 59 225 2.0 2.0 0.00 0.00 0.36 75 1004.0
20260831184506 59 270 2.0 2.0 0.00 0.00 0.36 75 1004.0
20260831184206 59 292 0.0 0.0 0.00 0.00 0.36 74 1004.2
20260831183905 59 315 2.0 2.0 0.00 0.00 0.34 74 1004.2
20260831183606 59 270 2.0 2.0 0.00 0.00 0.34 73 1004.2
20260831183306 59 180 2.0 2.0 0.00 0.00 0.34 73 1004.2
20260831183005 59 292 2.0 2.0 0.00 0.00 0.34 73 1004.2
20260831182707 60 292 10.0 10.0 0.00 0.00 0.34 73 1004.5
20260831182106 63 292 8.0 8.0 0.00 0.00 0.29 74 1004.5
20260831181806 63 292 4.0 4.0 0.00 0.00 0.29 72 1003.5
20260831181506 63 225 3.0 3.0 0.00 0.00 0.29 72 1003.3
20260831181205 63 202 4.0 4.0 0.00 0.00 0.29 71 1003.3
20260831180909 63 180 2.0 2.0 0.00 0.00 0.29 71 1003.3
20260831180606 63 225 3.0 3.0 0.00 0.00 0.29 71 1003.3
20260831180305 63 337 0.0 0.0 0.00 0.00 0.29 71 1003.0
20260831180006 63 225 1.0 1.0 0.00 0.00 0.29 71 1003.0
20260831175706 63 180 0.0 0.0 0.00 0.00 0.29 71 1002.5
20260831175105 63 202 2.0 2.0 0.00 0.00 0.29 71 1002.8
20260831174805 64 315 0.0 0.0 0.00 0.00 0.29 70 1002.8
20260831174506 64 337 0.0 0.0 0.00 0.00 0.29 70 1002.8
20260831174209 64 202 1.0 1.0 0.00 0.00 0.29 70 1002.8
20260831173906 65 180 0.0 0.0 0.00 0.00 0.29 70 1002.5
20260831173305 65 292 1.0 1.0 0.00 0.00 0.29 69 1002.5
20260831173005 65 270 0.0 0.0 0.00 0.00 0.29 69 1002.3
20260831172706 65 270 0.0 0.0 0.00 0.00 0.29 69 1002.3
20260831172405 65 270 0.0 0.0 0.00 0.00 0.29 69 1002.3
20260831172105 65 270 1.0 1.0 0.00 0.00 0.29 68 1002.5
20260831171808 66 337 2.0 2.0 0.00 0.00 0.29 68 1002.5
20260831171505 66 337 2.0 2.0 0.00 0.00 0.29 68 1002.8
20260831171206 66 270 3.0 3.0 0.00 0.00 0.29 68 1002.8
20260831170906 66 270 1.0 1.0 0.00 0.00 0.29 67 1002.8
20260831170605 66 270 2.0 2.0 0.00 0.00 0.29 67 1002.5
20260831170306 66 247 2.0 2.0 0.00 0.00 0.29 66 1002.8
20260831170005 67 270 6.0 6.0 0.00 0.00 0.29 67 1002.5
20260831165705 67 337 1.0 1.0 0.00 0.00 0.29 67 1002.5
20260831165407 67 337 3.0 3.0 0.00 0.00 0.29 67 1002.5
20260831165106 67 225 2.0 2.0 0.00 0.00 0.29 67 1002.5
20260831164806 67 270 2.0 2.0 0.00 0.00 0.29 67 1002.8
20260831164206 67 292 2.0 2.0 0.00 0.00 0.29 67 1002.8
20260831163905 66 337 2.0 2.0 0.00 0.00 0.29 67 1002.8
20260831163606 67 315 2.0 2.0 0.00 0.00 0.29 67 1002.8
20260831163305 67 270 3.0 3.0 0.00 0.00 0.29 67 1002.8
20260831163008 67 337 5.0 5.0 0.00 0.00 0.29 66 1002.8
20260831162705 68 270 3.0 3.0 0.00 0.00 0.29 66 1002.8
20260831162406 67 270 1.0 1.0 0.00 0.00 0.29 65 1002.8
20260831162106 67 270 2.0 2.0 0.00 0.00 0.29 65 1002.8
20260831161805 67 247 4.0 4.0 0.00 0.00 0.29 65 1002.5
20260831161206 67 337 5.0 5.0 0.00 0.00 0.29 64 1002.5
20260831160906 68 270 4.0 4.0 0.00 0.00 0.29 63 1002.8
20260831160606 68 225 4.0 4.0 0.00 0.00 0.29 64 1002.5
20260831160305 69 270 5.0 5.0 0.00 0.00 0.29 64 1002.5
20260831160006 70 270 2.0 2.0 0.00 0.00 0.29 64 1002.5
20260831155706 70 270 3.0 3.0 0.00 0.00 0.29 64 1002.5
20260831155406 69 225 7.0 7.0 0.00 0.00 0.29 64 1002.5
20260831155106 69 337 6.0 6.0 0.00 0.00 0.29 63 1002.5
20260831154806 70 225 7.0 7.0 0.00 0.00 0.29 64 1002.5
20260831154205 69 270 4.0 4.0 0.00 0.00 0.29 63 1002.3
20260831153906 70 270 7.0 7.0 0.00 0.00 0.29 65 1002.3
20260831153606 68 270 6.0 6.0 0.00 0.00 0.29 65 1002.3
20260831153305 68 270 3.0 3.0 0.00 0.00 0.29 67 1002.3
20260831153006 70 270 7.0 7.0 0.00 0.00 0.29 67 1002.5
20260831152706 68 337 3.0 4.0 0.00 0.00 0.29 69 1002.3
20260831152406 68 270 5.0 5.0 0.00 0.00 0.29 70 1002.3
20260831152106 67 225 3.0 3.0 0.00 0.00 0.29 69 1002.5
20260831151806 67 270 5.0 5.0 0.00 0.00 0.29 69 1002.5
20260831151206 67 225 6.0 6.0 0.00 0.00 0.29 69 1002.8
20260831150905 68 202 4.0 4.0 0.00 0.00 0.29 70 1002.8
20260831150606 69 225 2.0 2.0 0.00 0.00 0.29 70 1002.8
20260831150306 68 337 6.0 6.0 0.00 0.00 0.29 70 1002.5
20260831150005 67 202 5.0 5.0 0.00 0.00 0.29 70 1002.8
20260831145405 66 247 6.0 6.0 0.00 0.00 0.29 70 1002.8
20260831145105 66 270 4.0 4.0 0.00 0.00 0.29 70 1002.8
20260831144806 66 225 5.0 5.0 0.00 0.00 0.29 70 1002.8
20260831144506 67 202 7.0 7.0 0.00 0.00 0.29 70 1002.8
20260831144205 67 270 4.0 4.0 0.00 0.00 0.29 69 1002.8
20260831143905 68 270 3.0 4.0 0.00 0.00 0.29 72 1002.5
20260831143606 68 225 3.0 3.0 0.00 0.00 0.29 72 1002.5
20260831143306 66 270 4.0 4.0 0.00 0.00 0.29 72 1002.5
20260831143006 66 337 4.0 4.0 0.00 0.00 0.29 72 1002.8
20260831142705 66 270 2.0 2.0 0.00 0.00 0.29 72 1002.5
20260831142106 67 337 0.0 0.0 0.00 0.00 0.29 73 1002.5
20260831141805 67 270 1.0 1.0 0.00 0.00 0.29 73 1002.8
20260831141506 67 202 4.0 4.0 0.00 0.00 0.29 76 1002.8
20260831141205 66 225 1.0 1.0 0.00 0.00 0.29 75 1002.8
20260831140905 65 225 2.0 2.0 0.00 0.00 0.29 74 1002.8
20260831140606 64 270 4.0 4.0 0.00 0.00 0.29 74 1003.0
20260831140306 65 337 4.0 4.0 0.00 0.00 0.29 74 1002.8
20260831140005 64 270 5.0 5.0 0.00 0.00 0.29 74 1002.8
20260831135406 64 270 3.0 3.0 0.00 0.00 0.29 74 1003.0
20260831135106 64 337 4.0 4.0 0.00 0.00 0.29 73 1003.3
20260831134805 64 337 6.0 6.0 0.00 0.00 0.29 74 1003.3
20260831134506 64 180 5.0 5.0 0.00 0.00 0.29 73 1003.3
20260831134206 64 225 2.0 2.0 0.00 0.00 0.29 74 1003.0
20260831133908 64 270 2.0 2.0 0.00 0.00 0.29 73 1003.0
20260831133606 64 270 4.0 4.0 0.00 0.00 0.29 73 1003.0
20260831133305 65 270 5.0 5.0 0.00 0.00 0.29 73 1003.0
20260831133006 65 292 4.0 4.0 0.00 0.00 0.29 74 1003.0
20260831132705 65 270 3.0 3.0 0.00 0.00 0.29 74 1003.0
20260831132406 65 270 6.0 6.0 0.00 0.00 0.29 73 1003.0
20260831131806 64 270 3.0 3.0 0.00 0.00 0.29 72 1003.3
20260831131506 63 247 9.0 9.0 0.00 0.00 0.29 71 1003.3
20260831131206 63 247 5.0 5.0 0.00 0.00 0.28 69 1003.3
20260831130906 63 337 10.0 10.0 0.00 0.00 0.24 68 1003.0
20260831130606 66 270 12.0 13.0 0.00 0.00 0.12 65 1003.0
20260831130305 70 270 5.0 5.0 0.00 0.00 0.08 58 1002.3
20260831130005 70 202 4.0 4.0 0.00 0.00 0.08 55 1002.3
20260831125706 71 270 7.0 7.0 0.00 0.00 0.08 56 1002.3
20260831125406 71 270 4.0 4.0 0.00 0.00 0.08 55 1002.3
20260831125105 71 202 7.0 7.0 0.00 0.00 0.08 55 1002.3
20260831124805 71 225 6.0 6.0 0.00 0.00 0.08 55 1002.3
20260831124509 72 225 4.0 4.0 0.00 0.00 0.08 54 1002.3
20260831124206 73 225 6.0 6.0 0.00 0.00 0.08 54 1002.3
20260831123906 72 225 8.0 8.0 0.00 0.00 0.08 53 1002.3
20260831123606 73 225 10.0 10.0 0.00 0.00 0.08 54 1002.3
20260831123305 74 247 7.0 7.0 0.00 0.00 0.08 53 1002.3
20260831123005 74 337 12.0 12.0 0.00 0.00 0.08 53 1002.3
20260831122708 74 225 12.0 12.0 0.00 0.00 0.08 56 1002.3
20260831122405 73 225 16.0 16.0 0.00 0.00 0.08 56 1002.3
20260831122105 72 270 8.0 8.0 0.00 0.00 0.08 57 1002.3
20260831121806 72 337 4.0 4.0 0.00 0.00 0.08 56 1002.0
20260831121505 72 225 7.0 7.0 0.00 0.00 0.08 56 1002.3
20260831120905 72 292 7.0 7.0 0.00 0.00 0.08 57 1002.3
20260831120605 71 337 4.0 4.0 0.00 0.00 0.08 59 1002.3
20260831120306 70 270 6.0 6.0 0.00 0.00 0.08 58 1002.3
20260831115706 71 270 5.0 5.0 0.00 0.00 0.08 58 1002.3
20260831115406 71 225 6.0 6.0 0.00 0.00 0.08 58 1002.5